Location: Glinki
(53.4930°N, 14.6066°E)
Time: 02:49:09
(UTC+00:00)

Daily predictions for brighter satellites

Satellite Brightness Start Highest point End
(mag) Time Altitude Azimuth Time Altitude Azimuth Time Altitude Azimuth
Cosmos 1980 Rocket 4.4 01:12:46 21° NNE 01:12:47 21° NNE 01:16:57 10° ENE
USA 234 4.5 01:08:14 10° ENE 01:12:02 35° E 01:12:02 35° E
SL-16 R/B 4.4 01:18:45 18° N 01:18:45 18° N 01:20:29 10° NNE
CZ-2D R/B 4.5 01:28:01 10° N 01:28:58 15° N 01:28:58 15° N
IDEFIX/ARIANE 42P 4.4 01:35:11 10° NNE 01:38:04 28° NE 01:38:04 28° NE
CENTAUR R/B 3.5 02:02:59 38° SE 02:03:28 39° ESE 02:09:56 10° NE
SL-16 R/B 4.3 02:17:12 13° NNW 02:20:47 21° NNE 02:25:05 10° ENE
CZ-2C R/B 4.0 02:22:34 10° NNE 02:27:05 32° E 02:29:29 21° SE
ARIANE 5 R/B 3.7 02:22:26 10° NNE 02:25:18 35° NNE 02:25:18 35° NNE
Cosmos 2237 Rocket 4.4 02:34:17 13° NNW 02:35:09 14° N 02:37:54 10° NNE
Cosmos 1697 Rocket 2.8 02:35:00 71° NE 02:35:13 72° NE 02:40:53 10° SE
ADEOS II 3.7 02:33:11 10° N 02:35:25 24° N 02:35:25 24° N
Cosmos 2344 3.6 02:37:40 56° SSW 02:39:27 77° SE 02:47:48 10° NE
Lacrosse 4 Rocket 2.9 02:42:02 34° E 02:42:02 34° E 02:45:02 10° NE
USA 238 DEB 3.6 02:41:03 67° SSW 02:41:58 79° SE 02:48:58 10° NE
COSMOS 2406 4.3 02:39:30 26° SSE 02:41:59 40° ESE 02:47:15 10° NE
USA 238 3.6 02:41:08 67° SSW 02:42:04 79° SE 02:49:04 10° NE
NOSS 3-2 (A) 3.3 02:44:26 79° SSW 02:44:50 86° SE 02:51:41 10° NE
Cosmos 2360 Rocket 4.5 02:41:09 10° NNW 02:45:01 18° NNE 02:48:52 10° ENE
Lacrosse 5 rocket 3.4 02:50:06 19° SE 02:50:06 19° SE 02:52:31 10° E
ATLAS 3B R/B 4.3 02:46:20 10° S 02:51:49 29° ESE 02:57:21 10° ENE
Resurs 1-4 Rocket 4.3 02:49:53 10° N 02:50:58 14° NNW 02:50:58 14° NNW
Cosmos 967 Rocket 4.3 02:52:39 53° NW 02:54:18 89° ENE 03:00:35 10° SE
USA 234 3.2 02:51:22 10° ENE 02:57:56 81° NNW 02:59:22 58° W
Cosmos 1980 Rocket 2.6 02:54:36 24° NNW 02:57:57 62° NE 03:03:30 10° SE
SL-16 R/B 4.2 03:00:37 15° NNW 03:01:22 15° NNW 03:04:35 10° NNE
Cosmos 1048 Rocket 4.5 03:02:50 48° NNW 03:02:50 48° NNW 03:07:20 10° NNE
ADEOS Rocket 2.6 02:57:34 10° SSE 03:03:03 78° WSW 03:08:48 10° NNW
Cosmos 1025 Rocket 3.9 03:05:19 41° N 03:05:19 41° N 03:08:16 10° N
Cosmos 494 Rocket 4.0 03:04:22 67° NW 03:04:22 67° NW 03:09:24 10° NNE
Cosmos 2180 Rocket 4.3 02:59:03 10° NNW 03:05:20 74° W 03:11:30 10° S
Cosmos 2228 3.8 03:01:29 10° N 03:05:46 53° ENE 03:10:04 10° SSE
ERS-2 4.2 03:03:31 10° SSE 03:04:42 20° SE 03:04:42 20° SE
Spot 4 Rocket 4.2 03:02:40 10° N 03:07:10 56° NW 03:07:10 56° NW
Nadezhda 4 Rocket 4.5 03:01:51 10° S 03:07:49 59° E 03:13:51 10° NNE
Geosat 3.9 03:04:25 10° SSE 03:09:28 89° SW 03:10:58 47° NW
Cosmos 1269 Rocket 4.0 03:09:19 51° SSW 03:10:42 82° ESE 03:16:04 10° NNE
CZ-2D R/B 4.3 03:09:40 10° NNW 03:10:17 11° NNW 03:10:17 11° NNW
Cosmos 2360 4.1 03:13:18 37° NW 03:15:41 79° WSW 03:21:22 10° SSE
GP-B 4.3 03:18:13 29° NNW 03:18:13 29° NNW 03:20:30 10° N
Cosmos 1606 Rocket 4.0 03:11:46 10° N 03:16:13 63° ENE 03:20:39 10° SSE
Cosmos 1400 Rocket 3.9 03:14:29 10° N 03:18:19 45° ENE 03:22:04 10° SE
IDEFIX/ARIANE 42P 3.2 03:14:50 10° N 03:18:52 38° NW 03:18:52 38° NW
KORONAS-FOTON 4.1 03:25:50 55° N 03:25:50 55° N 03:28:59 10° N
Intercosmos 24 3.7 03:23:15 10° N 03:27:24 83° ENE 03:30:57 10° SSE
Cosmos 2278 3.6 03:24:14 20° NNW 03:28:21 87° WSW 03:34:00 10° SSE
Cosmos 2322 Rocket 3.6 03:24:21 10° NNW 03:29:36 36° NE 03:34:48 10° ESE
MSX 4.0 03:25:21 10° N 03:30:52 50° WNW 03:32:03 43° W
COSMO-SKYMED 1 3.6 03:26:45 10° SE 03:30:54 46° ENE 03:35:05 10° N
Cosmos 1300 2.8 03:28:50 10° N 03:32:41 73° ENE 03:36:30 10° SSE
Cosmos 220 Rocket 3.9 03:32:31 62° W 03:32:45 63° WSW 03:37:07 10° SSE
ALOS 3.1 03:28:23 10° NNE 03:32:58 52° E 03:37:31 10° S
Cosmos 2279 Rocket 4.4 03:30:56 10° NNW 03:36:35 38° W 03:36:37 38° W
In-Cosmos 22 4.2 03:35:42 42° WSW 03:36:59 52° WNW 03:42:22 10° N
CZ-4B R/B 1.4 03:34:00 10° SSE 03:37:08 72° S 03:37:08 72° S
Cosmos 1992 Rocket 3.9 03:34:01 20° NNW 03:37:42 68° WSW 03:42:52 10° SSE
Cosmos 1833 Rocket 2.8 03:33:51 16° SSW 03:38:25 76° ESE 03:44:05 10° NE
Cosmos 1674 3.4 03:42:36 38° NNW 03:42:36 38° NNW 03:45:20 10° N
SL-14 R/B 3.6 03:37:49 10° S 03:41:48 67° E 03:45:49 10° NNE
CZ-2C R/B 4.2 03:38:30 10° N 03:40:50 27° NNW 03:40:50 27° NNW
Cosmos 1626 2.1 03:39:54 19° S 03:42:28 80° E 03:46:11 10° NNE
deb Chang Zheng 4 4.3 03:40:21 10° NNE 03:44:33 54° ESE 03:48:43 10° S
Cosmos 1689 Rocket 3.1 03:42:27 10° SE 03:45:16 46° ENE 03:48:05 10° N
NOSS 3-2 (C) 3.5 03:43:22 33° WSW 03:46:13 72° NW 03:53:10 10° NE
Cosmos 1536 Rocket 4.0 03:48:18 41° WNW 03:48:22 41° WNW 03:52:39 10° N
deb Kosmos-1763 4.3 03:46:47 22° S 03:48:59 66° ESE 03:52:34 10° NNE
Cosmos 1315 Rocket 4.4 03:46:06 10° N 03:49:58 38° ENE 03:53:50 10° SE
Cosmos 2058 Rocket 3.4 03:46:05 10° N 03:50:37 71° ENE 03:55:05 10° SSE
Cosmos 2369 4.0 03:49:30 27° WNW 03:52:05 44° WSW 03:57:23 10° S
CENTAUR R/B 2.7 03:50:12 29° WSW 03:53:45 70° NW 04:01:19 10° NE
Cosmos 1484 Rocket 2.8 03:51:40 10° NNE 03:55:34 81° ESE 03:59:22 10° SSW
CBERS 1 LM4 rocket 4.3 03:51:12 10° NNE 03:56:10 71° WNW 04:00:56 10° SSW
Meteor 1-24 Rocket 3.9 03:52:21 10° S 03:58:01 78° ESE 04:03:56 10° NNE
Cosmos 2082 Rocket 2.5 03:55:46 10° SSW 04:01:19 68° ESE 04:06:55 10° NE
Cosmos 1461 3.5 03:57:50 14° SSW 04:01:44 67° SE 04:06:28 10° NE
Cosmos 1892 Rocket 3.8 03:59:04 10° S 04:03:24 71° E 04:07:48 10° NNE
PSLV R/B 3.9 03:59:50 10° N 04:03:52 41° WNW 04:05:31 28° WSW
Cosmos 2026 Rocket 4.3 03:58:32 10° S 04:04:53 73° E 04:11:15 10° NNE
CZ-2C R/B 2.7 04:00:41 10° N 04:05:28 45° WNW 04:08:51 18° SW
ARIANE 5 R/B 4.0 04:02:35 10° N 04:05:38 18° NW 04:05:38 18° NW
SL-16 R/B 2.6 04:00:22 10° NNW 04:06:03 64° NE 04:11:40 10° SE
CREW DRAGON DEMO-1 DEB 3.6 04:08:42 33° SW 04:09:03 35° SSW 04:11:50 10° SE
Cosmos 2195 Rocket 4.5 04:03:37 10° S 04:09:50 88° ESE 04:16:02 10° N
USA 290 2.4 04:06:41 10° SSW 04:09:53 72° ESE 04:13:09 10° NNE
ISS -2.6 04:09:06 22° SSW 04:10:47 37° SSE 04:13:56 10° E
Cosmos 2251 Rocket 3.6 04:07:10 10° SSW 04:12:32 81° ESE 04:17:53 10° NNE
Cosmos 2333 Rocket 4.0 04:10:53 10° NNW 04:15:38 26° NE 04:20:20 10° E
ADEOS II 4.2 04:16:16 10° NW 04:16:21 10° NW 04:16:21 10° NW
Cosmos 1697 Rocket 3.6 04:16:51 21° WNW 04:18:43 26° WSW 04:23:16 10° SSW
SKYMED 2 3.5 04:14:37 10° S 04:18:56 67° WSW 04:23:18 10° NNW
Lacrosse 4 Rocket 1.9 04:18:22 26° W 04:19:57 37° NW 04:23:48 10° NNE
Meteor 1-31 Rocket 2.7 04:16:21 10° NNE 04:20:18 77° WNW 04:24:15 10° SSW
Cosmos 1455 3.0 04:17:05 10° N 04:20:54 55° ENE 04:24:42 10° SSE
PSLV R/B 3.9 04:17:26 10° S 04:21:39 70° WSW 04:25:53 10° NNW
Cosmos 2237 Rocket 4.4 04:18:08 10° NNW 04:21:42 17° NNE 04:25:16 10° ENE
CZ-4B R/B 3.2 04:21:01 10° NNE 04:25:01 72° ESE 04:29:12 10° S
COSMOS 2406 3.5 04:21:37 14° WSW 04:26:15 49° NW 04:31:47 10° NNE
[s.n.46727] 4.3 04:25:26 13° SSW 04:27:29 29° SSE 04:29:56 10° E
FENGYUN 3A 3.7 04:22:08 10° N 04:27:32 63° WNW 04:32:53 10° SSW
[s.n.46723] 4.3 04:25:27 13° SSW 04:27:34 29° SSE 04:30:05 10° E
[s.n.46707] 4.3 04:25:36 13° SSW 04:27:40 29° SSE 04:30:07 10° E
[s.n.46708] 4.3 04:25:41 13° SSW 04:27:45 29° SSE 04:30:13 10° E
[s.n.46719] 4.3 04:25:47 13° SSW 04:27:51 29° SSE 04:30:18 10° E
[s.n.46724] 4.3 04:25:52 13° SSW 04:27:55 29° SSE 04:30:24 10° E
[s.n.46687] 4.2 04:25:57 13° SSW 04:28:01 29° SSE 04:30:29 10° E
[s.n.46696] 4.2 04:26:02 13° SSW 04:28:07 29° SSE 04:30:35 10° E
[s.n.46720] 4.2 04:26:08 13° SSW 04:28:12 29° SSE 04:30:40 10° E
[s.n.46676] 4.2 04:26:12 13° SSW 04:28:17 29° SSE 04:30:45 10° E
[s.n.46721] 4.2 04:26:18 13° SSW 04:28:23 29° SSE 04:30:51 10° E
Lacrosse 5 rocket 1.1 04:25:46 18° WSW 04:28:24 80° SSE 04:32:17 10° ENE
[s.n.46728] 4.2 04:26:23 13° SSW 04:28:28 29° SSE 04:30:56 10° E
[s.n.46690] 4.2 04:26:28 13° SSW 04:28:33 29° SSE 04:31:02 10° E
[s.n.46694] 4.2 04:26:32 13° SSW 04:28:38 29° SSE 04:31:06 10° E
[s.n.46702] 4.2 04:26:39 13° SSW 04:28:45 29° SSE 04:31:13 10° E
[s.n.46679] 4.2 04:26:42 13° SSW 04:28:48 29° SSE 04:31:17 10° E
[s.n.46704] 4.2 04:26:44 12° SSW 04:28:53 30° SSE 04:31:24 10° E
[s.n.46712] 4.2 04:26:50 12° SSW 04:28:57 29° SSE 04:31:25 10° E
[s.n.46711] 4.2 04:26:58 12° SSW 04:29:05 30° SSE 04:31:34 10° E
[s.n.46684] 4.2 04:27:01 12° SSW 04:29:07 30° SSE 04:31:36 10° E
[s.n.46706] 4.2 04:27:09 12° SSW 04:29:16 30° SSE 04:31:45 10° E
[s.n.46678] 4.2 04:27:07 12° SW 04:29:17 30° SSE 04:31:50 10° E
[s.n.46677] 4.2 04:27:17 12° SSW 04:29:24 30° SSE 04:31:53 10° E
[s.n.46671] 4.2 04:27:22 12° SSW 04:29:29 30° SSE 04:31:59 10° E
[s.n.46675] 4.2 04:27:27 12° SW 04:29:35 30° SSE 04:32:04 10° E
Meteor 2-5 Rocket 3.9 04:24:04 10° SSW 04:29:40 54° WNW 04:35:27 10° N
[s.n.46674] 4.2 04:27:33 12° SW 04:29:40 30° SSE 04:32:10 10° E
[s.n.46698] 4.2 04:27:38 12° SW 04:29:46 30° SSE 04:32:15 10° E
[s.n.46699] 4.2 04:27:39 12° SW 04:29:50 30° SSE 04:32:23 10° E
[s.n.46715] 4.2 04:27:48 12° SW 04:29:57 30° SSE 04:32:26 10° E
[s.n.46714] 4.2 04:27:53 12° SW 04:30:02 30° SSE 04:32:31 10° E
[s.n.46726] 4.2 04:27:59 12° SW 04:30:07 30° SSE 04:32:37 10° E
[s.n.46703] 4.2 04:28:04 12° SW 04:30:13 30° SSE 04:32:42 10° E
[s.n.46713] 4.2 04:28:09 12° SW 04:30:19 30° SSE 04:32:48 10° E
[s.n.46717] 4.2 04:28:14 12° SW 04:30:24 30° SSE 04:32:53 10° E
Cosmos 2360 Rocket 3.1 04:24:57 10° NNW 04:30:25 49° NE 04:35:52 10° SE
[s.n.46691] 4.2 04:28:16 12° SW 04:30:28 31° SSE 04:33:01 10° E
[s.n.46693] 4.2 04:28:25 12° SW 04:30:35 30° SSE 04:33:04 10° E
[s.n.46672] 4.2 04:28:30 12° SW 04:30:41 30° SSE 04:33:10 10° E
[s.n.46701] 4.2 04:28:35 12° SW 04:30:46 30° SSE 04:33:15 10° E
[s.n.46685] 4.2 04:28:41 12° SW 04:30:51 30° SSE 04:33:20 10° E
[s.n.46709] 4.2 04:28:46 12° SW 04:30:57 30° SSE 04:33:26 10° E
[s.n.46683] 4.2 04:28:50 12° SW 04:31:01 30° SSE 04:33:30 10° E
[s.n.46695] 4.2 04:28:55 12° SW 04:31:06 30° SSE 04:33:36 10° E
[s.n.46688] 4.2 04:29:02 12° SW 04:31:13 30° SSE 04:33:43 10° E
[s.n.46729] 4.2 04:29:06 12° SW 04:31:17 30° SSE 04:33:47 10° E
[s.n.46697] 4.2 04:29:09 12° SW 04:31:20 30° SSE 04:33:50 10° E
[s.n.46725] 4.2 04:29:14 12° SW 04:31:25 31° SSE 04:33:55 10° E
[s.n.46682] 4.2 04:29:19 12° SW 04:31:31 31° SSE 04:34:01 10° E
[s.n.46680] 4.2 04:29:25 12° SW 04:31:37 31° SSE 04:34:07 10° E
[s.n.46718] 4.2 04:29:30 12° SW 04:31:43 31° SSE 04:34:13 10° E
[s.n.46710] 4.2 04:29:35 12° SW 04:31:48 31° SSE 04:34:18 10° E
[s.n.46673] 4.2 04:29:46 12° SW 04:31:58 31° SSE 04:34:28 10° E
[s.n.46700] 4.2 04:29:51 12° SW 04:32:04 31° SSE 04:34:35 10° E
[s.n.46705] 4.2 04:29:56 12° SW 04:32:09 31° SSE 04:34:40 10° E
[s.n.46692] 4.2 04:30:02 12° SW 04:32:16 31° SSE 04:34:46 10° E
[s.n.46686] 4.2 04:30:07 12° SW 04:32:21 31° SSE 04:34:51 10° E
[s.n.46716] 4.1 04:30:12 12° SW 04:32:26 31° SSE 04:34:57 10° E
[s.n.46722] 4.2 04:30:17 12° SW 04:32:32 31° SSE 04:35:02 10° E
[s.n.46689] 4.1 04:30:23 12° SW 04:32:37 31° SSE 04:35:08 10° E
[s.n.46681] 4.1 04:30:28 12° SW 04:32:43 31° SSE 04:35:14 10° E
DNEPR-1 R/B 3.9 04:27:13 10° NW 04:32:45 84° NE 04:37:21 10° SE
USA 238 DEB 4.2 04:28:30 17° W 04:33:29 46° NNW 04:40:19 10° NE
USA 238 4.2 04:28:35 17° W 04:33:34 46° NNW 04:40:25 10° NE
Cosmos 1812 Rocket 4.2 04:29:45 10° N 04:34:05 59° ENE 04:38:21 10° SSE
NOSS 3-2 (A) 4.2 04:31:50 17° W 04:36:24 43° NNW 04:43:14 10° NE
Cosmos 1726 Rocket 4.3 04:34:06 10° NNW 04:38:00 30° W 04:41:52 10° SSW
USA 234 3.4 04:34:18 10° E 04:40:47 67° N 04:46:42 13° WNW
ERS-2 4.2 04:38:55 10° SW 04:39:16 11° WSW 04:39:16 11° WSW
Cosmos 1980 Rocket 3.0 04:36:49 10° NW 04:41:38 30° WSW 04:46:25 10° SSW
ATLAS 3B R/B 2.6 04:35:14 10° SW 04:41:50 85° NW 04:48:38 10° NE
Cosmos 2228 4.2 04:39:41 10° NW 04:42:59 21° W 04:46:18 10° SW
Cosmos 2098 Rocket 3.9 04:38:00 10° S 04:43:42 68° E 04:48:13 10° NNE
Cosmos 2084 Rocket 4.4 04:41:01 10° NW 04:45:13 45° NNE 04:49:31 10° ESE
Envisat 4.3 04:41:42 10° NNE 04:46:36 45° E 04:51:27 10° S
ATLAS CENTAUR R/B 3.8 04:44:25 10° S 04:47:29 23° ESE 04:50:28 10° ENE
SL-16 R/B 4.4 04:44:55 10° NNW 04:48:01 15° NNE 04:51:08 10° NE
ADEOS 3.9 04:43:34 10° N 04:48:30 43° WNW 04:53:24 10° SW
Cosmos 1092 Rocket 4.2 04:43:00 10° SSW 04:48:58 49° WNW 04:55:04 10° N
CZ-2C R/B 3.8 04:44:11 10° SE 04:49:31 47° ENE 04:54:53 10° N
ADEOS Rocket 4.2 04:46:50 10° WSW 04:49:45 14° W 04:52:42 10° NW
Aureole 3 4.3 04:48:07 10° NNW 04:51:44 32° W 04:56:07 10° SSW
CZ-4B R/B 4.4 04:50:22 10° N 04:54:21 38° WNW 04:58:09 10° SW
Cosmos 1400 Rocket 4.0 04:51:31 10° NW 04:54:31 21° W 04:57:28 10° SW
Cosmos 2344 4.1 04:47:42 12° W 04:54:35 49° NNW 05:03:33 10° ENE
Cosmos 407 Rocket 3.9 04:49:35 10° SSW 04:54:40 66° ESE 04:59:50 10° NNE
Meteor 2-19 Rocket 4.5 04:49:03 10° S 04:55:09 90° W 05:01:16 10° NNE
Cosmos 921 Rocket 4.4 04:51:25 10° NNW 04:55:43 41° ENE 05:00:00 10° SE
Cosmos 2219 Rocket 3.6 04:51:17 10° NNW 04:56:30 36° NE 05:01:39 10° ESE
Cosmos 1140 Rocket 4.2 04:52:24 10° S 04:57:25 58° ESE 05:02:27 10° NNE
NOSS 8 (A) 4.4 04:57:41 10° SW 05:00:46 69° SE 05:03:44 10° NE
Cosmos 1607 4.2 04:56:43 10° NW 05:03:16 82° NE 05:09:46 10° SE
Cosmos 1763 Rocket 4.3 05:01:05 10° NNW 05:06:04 51° ENE 05:11:00 10° SE
S3M 4.0 05:00:10 10° NNW 05:06:25 69° W 05:12:42 10° S
Cosmos 2315 Rocket 4.4 05:00:28 10° N 05:06:43 72° ENE 05:13:00 10° SSE
COSMO-SKYMED 1 3.6 05:03:39 10° SSW 05:07:16 25° W 05:10:55 10° NW
Cosmos 1300 4.5 05:06:01 10° NW 05:07:47 13° W 05:09:32 10° WSW
ALOS 3.2 05:06:14 10° N 05:10:10 27° WNW 05:14:05 10° WSW
Cosmos 2292 Rocket 3.1 05:08:16 10° S 05:11:34 88° W 05:15:45 10° N
Cosmos 1655 Rocket 4.1 05:06:22 10° S 05:12:40 89° W 05:19:05 10° N
Meteor 2-10 Rocket 3.9 05:08:12 10° NNW 05:12:50 38° W 05:17:30 10° SSW
Cosmos 2322 Rocket 2.3 05:08:24 10° NW 05:14:00 61° WSW 05:19:34 10° SSE
Cosmos 1689 Rocket 4.0 05:15:22 10° WSW 05:16:41 12° W 05:18:00 10° WNW
Cosmos 2266 Rocket 4.1 05:11:53 10° S 05:17:55 82° E 05:24:03 10° NNE
Cosmos 1626 4.0 05:16:35 10° W 05:18:16 13° WNW 05:19:58 10° NNW
NOAA 6 4.2 05:13:45 10° NNE 05:18:58 82° ESE 05:24:07 10° SSW
Cosmos 2237 4.3 05:17:07 10° NW 05:22:50 76° WSW 05:28:30 10° SSE
